Regional Weather Roundup
Issued by NWS Wakefield, VA

Home | Current Version | Previous Version | Text Only | Print | Product List | Glossary Off
Versions: 1 2 3 4 5 6 7 8 9 10 11 12 13 14 15 16 17 18 19 20 21 22 23 24 25 26 27 28 29 30 31 32 33 34 35 36 37 38 39 40 41 42 43 44 45 46 47 48 49 50

000
ASUS41 KAKQ 100510
RWRAKQ

REGIONAL WEATHER ROUNDUP
NATIONAL WEATHER SERVICE WAKEFIELD VA
100 AM EDT THU JUL 10 2014

Note: "fair" indicates few or no clouds below 12,000 feet with no
significant weather and/or obstructions to visibility. * = Denotes
station may not report precipitation (e.g., rain,snow,etc.),
thunder or fog.

VAZ042-051-052>054-056-100600-
NORTHERN VIRGINIA

CITY           SKY/WX    TMP DP  RH WIND       PRES   REMARKS
WASH NATIONAL  CLOUDY    74  66  76 S7        29.97F
DULLES         MOCLDY    69  68  96 CALM      29.98R
FORT BELVOIR   PTCLDY    68  67  98 CALM      29.98S
QUANTICO       PTCLDY    72  69  90 NW5       29.98F
FREDERICKSBRG* MOCLDY    76  70  84 SE5       29.97S
STAFFORD*      FOG       69  69 100 CALM      30.02S VSB 3/4
WARRENTON        N/A     69  69 100 CALM      29.98S FOG
CULPEPER*        N/A    N/A N/A N/A MISG      29.99S
MANASSAS*      MOCLDY   N/A N/A N/A CALM      29.98R
LEESBURG*      MOCLDY    72  72 100 S3        30.00R
WINCHESTER     MOCLDY    72  64  78 CALM      30.00R
$$

VAZ048-049-060>072-079>083-100600-
CENTRAL AND SOUTH CENTRAL VIRGINIA...AND NORTH CENTRAL NORTH CAROLINA

CITY           SKY/WX    TMP DP  RH WIND       PRES   REMARKS
RICHMOND       CLOUDY    74  71  91 S6        30.00F
CHESTERFIELD*  CLOUDY    73  63  68 S7        30.02S
HANOVER        CLOUDY    75  69  81 CALM      30.00F
TAPPAHANNOCK*  CLOUDY    74  68  79 CALM      30.00F
CHARLOTTSVILLE NOT AVBL
ORANGE*        PTCLDY    68  66  94 CALM      30.00S
LOUISA*        MOCLDY    72  68  88 CALM      29.98F
FARMVILLE*     CLOUDY    70  70 100 CALM      30.00R
SOUTH HILL*    CLOUDY    72  72 100 CALM      30.07S
ROANOKE RAPIDS LGT RAIN  68  66  94 CALM      30.03R
RALEIGH        CLOUDY    75  69  81 SW5       30.04S
$$

VAZ088>098-100600-
SOUTHEAST VIRGINIA

CITY           SKY/WX    TMP DP  RH WIND       PRES   REMARKS
NORFOLK        LGT RAIN  73  69  87 SW7       30.02F
VIRGINIA BEACH LGT RAIN  72  69  90 SW10      30.02F
NORFOLK NAVAL  LGT RAIN  74  70  87 SW6       30.04F
WEST POINT*    CLOUDY    75  71  87 S3        30.03S
NEWPORT NEWS   LGT RAIN  77  71  82 S8        30.03F
LANGLEY AFB    DRIZZLE   73  73 100 S8        30.02F
FORT EUSTIS    LGT RAIN  73  73 100 S7        30.01R
WILLIAMSBURG*  CLOUDY    75  73  94 CALM      30.03R
FRANKLIN*      CLOUDY    72 N/A N/A CALM      30.02F
WAKEFIELD      LGT RAIN  73  71  93 CALM      30.01F FOG
$$

VAZ020-022-025-037-045-100600-
WESTERN AND SOUTHWEST VIRGINIA

CITY           SKY/WX    TMP DP  RH WIND       PRES   REMARKS
STAUNTON*      PTCLDY    67  63  88 CALM      30.05S
HOT SPRINGS VA CLOUDY    64  53  67 W6        30.18S
LYNCHBURG      PTCLDY    67  66  97 S3        30.04S
DANVILLE       NOT AVBL
MARTINSVILLE   FOG       66  66 100 CALM      30.07S VSB 3/4
ROANOKE        MOCLDY    68  66  93 CALM      30.07R
BLACKSBURG     MOCLDY    66  66 100 CALM      30.12S FOG
DUBLIN*        CLOUDY    67  67 100 CALM      30.12S
MARION*        CLOUDY    64  64 100 CALM      30.16S FOG
HILLSVILLE*    CLOUDY    64  63  95 W5        30.14S
RICHLANDS*     MOCLDY    68  64  89 S3        30.13F
WISE*          CLOUDY    66  66 100 CALM      30.15S
ABINGDON*      CLOUDY    70  68  93 CALM      30.11F
$$

MDZ021>025-VAZ099-100-100600-
SOUTHERN MARYLAND AND THE DELMARVA PENINSULA

CITY           SKY/WX    TMP DP  RH WIND       PRES   REMARKS
PATUXENT RIVER CLOUDY    74  69  85 SW9       29.97F
BAY BRIDGE APT   N/A     73  70  88 S3        29.97F
LEONARDTOWN    CLOUDY    72  68  88 SW7       30.00S
DOVER          CLOUDY    73  73 100 S13       29.95S
GEORGETOWN     CLOUDY    74  70  87 S13       29.99S
EASTON         CLOUDY    75  75 100 CALM      30.01F
CAMBRIDGE      CLOUDY    77  72  83 S3        29.98S
SALISBURY      CLOUDY    75  71  87 CALM      29.99S
OCEAN CITY     CLOUDY    74  71  91 W6        29.98F
WALLOPS ISLAND CLOUDY    74  70  87 SW9       30.01R
ACCOMACK*      RAIN      72  68  88 SW9       30.01F
$$

NCZ012>017-030>032-100600-
EASTERN NORTH CAROLINA

CITY           SKY/WX    TMP DP  RH WIND       PRES   REMARKS
ELIZABETH CITY CLOUDY    71  69  93 CALM      30.05S
AHOSKIE*       CLOUDY    72  70  94 S3        30.04S
EDENTON*       CLOUDY    74  72  94 SE5       30.04S
CURRITUCK*     CLOUDY    72  69  90 W7        30.05S
KILL DEVIL HLS CLOUDY    79  73  82 CALM      30.04S
MANTEO           N/A     79  75  89 SW12      30.05F
CAPE HATTERAS  PTCLDY    81  77  88 SW13G21   30.07F
GOLDSBORO      CLOUDY    78  77  96 S7        30.02R
WASHINGTON     MOCLDY    78  73  83 S5        30.04F
GREENVILLE     CLOUDY    77  73  88 CALM      30.05S
NEW BERN       PTCLDY    79  74  84 S6        30.07S
WILMINGTON     PTCLDY    80  74  81 SW9       30.06R
$$

VAZ048-100600-
ELSEWHERE

CITY           SKY/WX    TMP DP  RH WIND       PRES   REMARKS
HARRISBURG PA  PTCLDY    73  63  70 CALM      29.97R
BALTIMORE      MOCLDY    71  67  87 CALM      29.97S
ANNAPOLIS      MOCLDY    73  68  84 CALM      29.97S
ANDREWS AFB    PTCLDY    68  68  98 S7        29.98F
WILMINGTON DE  MOCLDY    75  71  87 SW5       29.98R
PHILADELPHIA   MOCLDY    78  69  73 SW10      29.97R
WILDWOOD NJ*   CLOUDY    72  68  88 SW7       29.99F
ATLANTIC CITY  CLOUDY    74  71  91 SW10      29.97S
HENDERSON NC   CLOUDY    71  68  90 S5        30.04S
GREENSBORO     MOCLDY    71  69  93 SW7       30.05R
ROCKY MOUNT    CLOUDY    75  71  87 CALM      30.03F
FAYETTEVILLE   NOT AVBL
CHARLOTTE      CLOUDY    73  69  87 CALM      30.05S
$$

VAZ100-100600-
MARINE

STATION/POSITION TIME  TEMP    WIND        PRES    WAVE   SWELL
                       AIR SEA DIR/SP/G            HT/PER HT/PER
                 (UTC) (F)     (DEG/KT/KT) (MB)    (FT/S) (FT/S)
44066 TX TWR #4  0500   73 70  240/ 14/ 17 1015.4R   4/ 8   3/ 8
CAPE MAY NJ      0500   72 73  220/  4/  5 1015.0R
LEWES DE         0500   74 68  230/  9/ 16 1014.4S
15NM E FENWICK I 0500   72 72              1015.2F   4/ 5
OCEAN-CITY-INLET 0500   71 66  260/  6/  6 1015.2S
WACHAPREAGUE VA  0500   73 81  220/  5/ 10 1016.2F
THOMAS POINT MD  0500   75 78  200/ 10/ 11 1015.5S
GOOSES REEF MD   0500   76     210/ 14/ 16 1015.4F
COVE POINT MD    0500   75     210/ 11/ 13 1015.0F
SOLOMONS ISLAND  0500      79                N/A
BISHOPS HEAD MD  0500   78 80  220/ 14/ 17 1015.1F
PINEY POINT MD   0500          220/ 12/ 14   N/A
POTOMAC MD       0500   77     220/ 14/ 17 1014.7S
CAMBRIDGE MD     0500   76 80  190/  5/  9 1014.7F
LEWISETTA VA     0500   76 81  220/ 10/ 13 1015.0F
RAPPAHANNOCK LGT 0500          200/ 16/ 17 1016.6F
STINGRAY PT      0500   74     220/ 16/ 17 1015.1S
YORK RVR RNG VA  0500   75     220/ 12/ 14 1015.6F
YORKTOWN VA      0500   73 79  220/  8/ 10 1016.3R
JAMESTOWN VA     0500   72     220/  8/ 10   N/A
DOMINION TERM VA 0500   74     220/ 12/ 13 1016.7S
KIPTOPEKE VA     0500      82  230/ 12/ 14   N/A
CHES BAY BRIDGE  0500   74 77  210/ 12/ 16 1015.9F
CAPE HENRY VA    0500   72     210/  7/ 10 1015.4F
WILLOUBY STN VA  0500   74     220/ 12/ 14 1015.8S
S CRANEY ISL VA  0500          210/  6/  8 1016.7F
CAPE HENRY BUOY  0400      75                N/A     3/ 6
1ST LANDING BUOY 0500   74     230/ 16/ 17 1016.5S
CAPE CHARLES BUO 0500      73                N/A     3/ 5
OFFSHORE WE BUOY 0400      74                N/A     3/ 6
64NM E OF VA BCH 0500   76 75  220/  2/  4 1017.2R   4/ 6   3/ 6
DUCK PIER NC     0500   74 65  140/  5/  5 1017.0R
44056 DUCK FRF   0400                        N/A     2/10
OREGON INLET NC  0500   81 85  220/ 16/ 19 1017.5F
HATTERAS NC      0500   80 82  210/ 11/ 15 1018.5F
DIAMOND SHLS NC  0500          VRB 17/ 19  1018.1F   5/ 5   2/ 8
CAPE LOOKOUT NC  0400   81     200/ 12/ 15 1018.3R
$$


USA.gov is the U.S. government's official web portal to all federal, state and local government web resources and services.